Tracking 35237 objects as of 6-Sep-2026
HD Live streaming from Space Station
objects crossing your sky now

YAOGAN-36 05C

Track YAOGAN-36 05C now!
10-day predictions


NORAD ID: 57456
Int'l Code: 2023-106E
Launch date: July 26, 2023
Source: People's Republic of China (PRC)
Launch site: Xichang Space Center, China (XSC)
Your satellite tracking list
Your tracking list is empty




NASA's NSSDC Master Catalog

Two Line Element Set (TLE):
1 57456U 23106E   26248.59785297  .00003188  00000-0  15796-3 0  9994
2 57456  34.9939 299.5279 0001755 326.0852  33.9748 15.17306857173089
Source of the keplerian elements: AFSPC